Time,TemperatureF,DewpointF,PressureIn,WindDirection,WindDirectionDegrees,WindSpeedMPH,WindSpeedGustMPH,Humidity,HourlyPrecipIn,Conditions,Clouds,dailyrainin,SoftwareType,DateUTC
2013-08-25 00:00:00,55.0,-99.9,-100.00,North,-999,-999.0,-999.0,-999,0.00,,,0.16,,2013-08-25 07:00:00,
2013-08-25 00:42:00,55.0,-99.9,-100.00,North,-999,-999.0,-999.0,-999,0.00,,,0.16,,2013-08-25 07:42:00,
2013-08-25 00:53:00,55.0,-99.9,-100.00,North,-999,-999.0,-999.0,-999,0.00,,,0.16,,2013-08-25 07:53:00,
2013-08-25 01:00:00,55.0,-99.9,-100.00,North,-999,-999.0,-999.0,-999,0.00,,,0.16,,2013-08-25 08:00:00,
2013-08-25 01:22:00,55.0,-99.9,-100.00,North,-999,-999.0,-999.0,-999,0.00,,,0.16,,2013-08-25 08:22:00,
2013-08-25 01:32:00,55.0,-99.9,-100.00,North,-999,-999.0,-999.0,-999,0.00,,,0.16,,2013-08-25 08:32:00,
2013-08-25 01:42:00,55.0,-99.9,-100.00,North,-999,-999.0,-999.0,-999,0.00,,,0.16,,2013-08-25 08:42:00,
2013-08-25 01:53:00,55.0,-99.9,-100.00,North,-999,-999.0,-999.0,-999,0.00,,,0.16,,2013-08-25 08:53:00,
2013-08-25 02:00:00,54.0,-99.9,-100.00,North,-999,-999.0,-999.0,-999,0.00,,,0.16,,2013-08-25 09:00:00,
2013-08-25 02:44:00,54.0,-99.9,-100.00,North,-999,-999.0,-999.0,-999,0.00,,,0.16,,2013-08-25 09:44:00,
2013-08-25 02:55:00,54.0,-99.9,-100.00,North,-999,-999.0,-999.0,-999,0.00,,,0.16,,2013-08-25 09:55:00,
2013-08-25 04:00:00,54.0,-99.9,-100.00,North,-999,-999.0,-999.0,-999,0.00,,,0.16,,2013-08-25 11:00:00,
2013-08-25 04:42:00,54.0,-99.9,-100.00,North,-999,-999.0,-999.0,-999,0.00,,,0.16,,2013-08-25 11:42:00,
2013-08-25 04:52:00,54.0,-99.9,-100.00,North,-999,-999.0,-999.0,-999,0.00,,,0.16,,2013-08-25 11:52:00,
2013-08-25 06:00:00,51.0,-99.9,-100.00,North,-999,-999.0,-999.0,-999,0.00,,,0.16,,2013-08-25 13:00:00,
2013-08-25 06:42:00,51.0,-99.9,-100.00,North,-999,-999.0,-999.0,-999,0.00,,,0.16,,2013-08-25 13:42:00,
2013-08-25 06:52:00,51.0,-99.9,-100.00,North,-999,-999.0,-999.0,-999,0.00,,,0.16,,2013-08-25 13:52:00,
2013-08-25 07:00:00,52.0,-99.9,-100.00,North,-999,-999.0,-999.0,-999,0.00,,,0.16,,2013-08-25 14:00:00,
2013-08-25 07:42:00,52.0,-99.9,-100.00,North,-999,-999.0,-999.0,-999,0.00,,,0.16,,2013-08-25 14:42:00,
2013-08-25 07:52:00,52.0,-99.9,-100.00,North,-999,-999.0,-999.0,-999,0.00,,,0.16,,2013-08-25 14:52:00,
2013-08-25 08:00:00,59.0,-99.9,-100.00,North,-999,-999.0,-999.0,-999,0.00,,,0.16,,2013-08-25 15:00:00,
2013-08-25 08:44:00,59.0,-99.9,-100.00,North,-999,-999.0,-999.0,-999,0.00,,,0.16,,2013-08-25 15:44:00,
2013-08-25 08:55:00,59.0,-99.9,-100.00,North,-999,-999.0,-999.0,-999,0.00,,,0.16,,2013-08-25 15:55:00,
2013-08-25 09:00:00,63.0,-99.9,-100.00,North,-999,-999.0,-999.0,-999,0.00,,,0.16,,2013-08-25 16:00:00,
2013-08-25 09:44:00,63.0,-99.9,-100.00,North,-999,-999.0,-999.0,-999,0.00,,,0.16,,2013-08-25 16:44:00,
2013-08-25 09:54:00,63.0,-99.9,-100.00,North,-999,-999.0,-999.0,-999,0.00,,,0.16,,2013-08-25 16:54:00,
2013-08-25 10:00:00,67.0,-99.9,-100.00,North,-999,-999.0,-999.0,-999,0.00,,,0.16,,2013-08-25 17:00:00,
2013-08-25 10:43:00,67.0,-99.9,-100.00,North,-999,-999.0,-999.0,-999,0.00,,,0.16,,2013-08-25 17:43:00,
2013-08-25 10:53:00,67.0,-99.9,-100.00,North,-999,-999.0,-999.0,-999,0.00,,,0.16,,2013-08-25 17:53:00,
2013-08-25 11:00:00,68.0,-99.9,-100.00,North,-999,-999.0,-999.0,-999,0.00,,,0.16,,2013-08-25 18:00:00,
2013-08-25 11:43:00,68.0,-99.9,-100.00,North,-999,-999.0,-999.0,-999,0.00,,,0.16,,2013-08-25 18:43:00,
2013-08-25 11:52:00,68.0,-99.9,-100.00,North,-999,-999.0,-999.0,-999,0.00,,,0.16,,2013-08-25 18:52:00,
2013-08-25 12:00:00,70.0,-99.9,-100.00,North,-999,-999.0,-999.0,-999,0.00,,,0.16,,2013-08-25 19:00:00,
2013-08-25 12:42:00,70.0,-99.9,-100.00,North,-999,-999.0,-999.0,-999,0.00,,,0.16,,2013-08-25 19:42:00,
2013-08-25 12:53:00,70.0,-99.9,-100.00,North,-999,-999.0,-999.0,-999,0.00,,,0.16,,2013-08-25 19:53:00,
2013-08-25 13:00:00,73.0,-99.9,-100.00,North,-999,-999.0,-999.0,-999,0.00,,,0.16,,2013-08-25 20:00:00,
2013-08-25 13:43:00,73.0,-99.9,-100.00,North,-999,-999.0,-999.0,-999,0.00,,,0.16,,2013-08-25 20:43:00,
2013-08-25 13:53:00,73.0,-99.9,-100.00,North,-999,-999.0,-999.0,-999,0.00,,,0.16,,2013-08-25 20:53:00,
2013-08-25 15:00:00,55.0,-99.9,-100.00,North,-999,-999.0,-999.0,-999,0.13,,,0.29,,2013-08-25 22:00:00,
2013-08-25 15:43:00,55.0,-99.9,-100.00,North,-999,-999.0,-999.0,-999,0.13,,,0.29,,2013-08-25 22:43:00,
2013-08-25 15:54:00,55.0,-99.9,-100.00,North,-999,-999.0,-999.0,-999,0.13,,,0.29,,2013-08-25 22:54:00,
2013-08-25 17:00:00,54.0,-99.9,-100.00,North,-999,-999.0,-999.0,-999,0.05,,,0.65,,2013-08-26 00:00:00,
2013-08-25 17:42:00,54.0,-99.9,-100.00,North,-999,-999.0,-999.0,-999,0.05,,,0.65,,2013-08-26 00:42:00,
2013-08-25 17:52:00,54.0,-99.9,-100.00,North,-999,-999.0,-999.0,-999,0.05,,,0.65,,2013-08-26 00:52:00,
2013-08-25 18:00:00,60.0,-99.9,-100.00,North,-999,-999.0,-999.0,-999,0.01,,,0.64,,2013-08-26 01:00:00,
2013-08-25 18:42:00,60.0,-99.9,-100.00,North,-999,-999.0,-999.0,-999,0.01,,,0.64,,2013-08-26 01:42:00,
2013-08-25 18:52:00,60.0,-99.9,-100.00,North,-999,-999.0,-999.0,-999,0.01,,,0.64,,2013-08-26 01:52:00,
2013-08-25 19:00:00,60.0,-99.9,-100.00,North,-999,-999.0,-999.0,-999,0.00,,,0.52,,2013-08-26 02:00:00,
2013-08-25 19:42:00,60.0,-99.9,-100.00,North,-999,-999.0,-999.0,-999,0.00,,,0.52,,2013-08-26 02:42:00,
2013-08-25 19:52:00,60.0,-99.9,-100.00,North,-999,-999.0,-999.0,-999,0.00,,,0.52,,2013-08-26 02:52:00,
2013-08-25 20:00:00,54.0,-99.9,-100.00,North,-999,-999.0,-999.0,-999,0.00,,,0.52,,2013-08-26 03:00:00,
2013-08-25 20:44:00,54.0,-99.9,-100.00,North,-999,-999.0,-999.0,-999,0.00,,,0.52,,2013-08-26 03:44:00,
2013-08-25 20:56:00,54.0,-99.9,-100.00,North,-999,-999.0,-999.0,-999,0.00,,,0.52,,2013-08-26 03:56:00,
2013-08-25 21:00:00,51.0,-99.9,-100.00,North,-999,-999.0,-999.0,-999,0.00,,,0.52,,2013-08-26 04:00:00,
2013-08-25 21:44:00,51.0,-99.9,-100.00,North,-999,-999.0,-999.0,-999,0.00,,,0.52,,2013-08-26 04:44:00,
2013-08-25 21:53:00,51.0,-99.9,-100.00,North,-999,-999.0,-999.0,-999,0.00,,,0.52,,2013-08-26 04:53:00,
2013-08-25 22:00:00,51.0,-99.9,-100.00,North,-999,-999.0,-999.0,-999,0.01,,,0.51,,2013-08-26 05:00:00,
2013-08-25 22:44:00,51.0,-99.9,-100.00,North,-999,-999.0,-999.0,-999,0.01,,,0.51,,2013-08-26 05:44:00,
2013-08-25 22:53:00,51.0,-99.9,-100.00,North,-999,-999.0,-999.0,-999,0.01,,,0.51,,2013-08-26 05:53:00,
2013-08-25 23:00:00,52.0,-99.9,-100.00,North,-999,-999.0,-999.0,-999,0.00,,,0.51,,2013-08-26 06:00:00,
2013-08-25 23:42:00,52.0,-99.9,-100.00,North,-999,-999.0,-999.0,-999,0.00,,,0.51,,2013-08-26 06:42:00,
2013-08-25 23:52:00,52.0,-99.9,-100.00,North,-999,-999.0,-999.0,-999,0.00,,,0.51,,2013-08-26 06:52:00,